Regional Weather Roundup
Issued by NWS Goodland, KS

Home | Current Version | Previous Version | Text Only | Print | Product List | Glossary Off
Versions: 1 2 3 4 5 6 7 8 9 10 11 12 13 14 15 16 17 18 19 20 21 22 23 24 25 26 27 28 29 30 31 32 33 34 35 36 37 38 39 40 41 42 43 44 45 46 47 48 49 50

000
ASUS43 KGLD 261159
RWRGLD

GOODLAND FORECAST AREA HOURLY WEATHER ROUNDUP
NATIONAL WEATHER SERVICE GOODLAND KS
600 AM MDT TUE MAY 26 2015

...OFFICIAL OBSERVATIONS...

CITY           SKY/WX    TMP DP  RH WIND       PRES   REMARKS
GOODLAND KS    CLEAR     46  44  93 W8        29.96R
HILL CITY KS   PTCLDY    53  50  89 W7        29.89R
IMPERIAL NEB   PTCLDY    50  48  93 NW9       29.94R
MCCOOK NEB     MOCLDY    53  50  89 NW8       29.90R
AKRON CO       MOCLDY    45  45 100 W5        30.01R FOG
BURLINGTON CO  CLEAR     46  43  89 W8        29.99R
LIMON CO       MOCLDY    46  42  86 NW8       30.04R
$$

...UNOFFICIAL OBSERVATIONS...

CITY           SKY/WX    TMP DP  RH WIND       PRES   REMARKS
GOVE KS          N/A     51  32  48 MISG        N/A
LENORA KS        N/A     51  32  48 MISG        N/A
SHARON SPRINGS   N/A     47  45  93 MISG        N/A
TRENTON NEB      N/A     52  32  46 NW9         N/A
KIT CARSON CO    N/A     49  46  88 MISG        N/A
$$


USA.gov is the U.S. government's official web portal to all federal, state and local government web resources and services.